When you browse on this site, cookies collect data to enhance your experience and personalize the content and advertising you see.
Visit our Privacy Policy to learn more. By continuing to use the site, you agree to this use of cookies and data.
  • In Portugal
  • List of Countries
  • For 7 days
  • Water Temperature
  • Weather Map
  • Weather Widgets
  • user-avatar
    Login

    Hourly Weather Jewłach

    Today, 23 September, Monday

    Time Temperature Precipitation Wind Pressure Humidity
    00:00 +16°C° 0 mm 3 mps 764 mmHg 73%
    01:00 +15°C° 0 mm 2 mps 764 mmHg 75%
    02:00 +15°C° 0 mm 1 mps 763 mmHg 76%
    03:00 +13°C° 0 mm 0 mps 764 mmHg 79%
    04:00 +13°C° 0 mm 0 mps 763 mmHg 79%
    05:00 +14°C° 0 mm 1 mps 763 mmHg 79%
    06:00 +14°C° 0 mm 1 mps 763 mmHg 78%
    07:00 +16°C° 0 mm 1 mps 763 mmHg 69%
    08:00 +19°C° 0 mm 1 mps 763 mmHg 59%
    09:00 +21°C° 0 mm 1 mps 762 mmHg 49%
    10:00 +22°C° 0 mm 1 mps 762 mmHg 44%
    11:00 +24°C° 0 mm 1 mps 761 mmHg 38%
    12:00 +25°C° 0 mm 1 mps 761 mmHg 32%
    13:00 +26°C° 0 mm 1 mps 760 mmHg 31%
    14:00 +26°C° 0 mm 1 mps 760 mmHg 29%
    15:00 +27°C° 0 mm 1 mps 759 mmHg 28%
    16:00 +25°C° 0 mm 1 mps 759 mmHg 31%
    17:00 +24°C° 0 mm 1 mps 760 mmHg 34%
    18:00 +21°C° 0 mm 0 mps 760 mmHg 36%
    19:00 +22°C° 0 mm 1 mps 760 mmHg 39%
    20:00 +21°C° 0 mm 2 mps 761 mmHg 42%
    21:00 +20°C° 0 mm 3 mps 761 mmHg 45%
    22:00 +20°C° 0 mm 3 mps 761 mmHg 58%
    23:00 +19°C° 0 mm 3 mps 761 mmHg 71%

    Tomorrow, 24 September, Tuesday

    Time Temperature Precipitation Wind Pressure Humidity
    00:00 +18°C° 0 mm 3 mps 761 mmHg 83%
    01:00 +18°C° 0 mm 2 mps 761 mmHg 85%
    02:00 +18°C° 0 mm 2 mps 761 mmHg 86%
    03:00 +17°C° 0 mm 2 mps 761 mmHg 87%
    04:00 +19°C° 0 mm 1 mps 761 mmHg 85%
    05:00 +19°C° 0 mm 1 mps 762 mmHg 83%
    06:00 +19°C° 0 mm 1 mps 762 mmHg 81%
    07:00 +20°C° 0 mm 1 mps 762 mmHg 77%
    08:00 +21°C° 0 mm 1 mps 762 mmHg 73%
    09:00 +22°C° 0 mm 1 mps 762 mmHg 70%
    10:00 +21°C° 0 mm 2 mps 761 mmHg 66%
    11:00 +23°C° 0 mm 2 mps 761 mmHg 63%
    12:00 +24°C° 0 mm 2 mps 760 mmHg 59%
    13:00 +25°C° 0 mm 2 mps 760 mmHg 54%
    14:00 +26°C° 0 mm 1 mps 759 mmHg 49%
    15:00 +27°C° 0 mm 1 mps 759 mmHg 44%
    16:00 +26°C° 0 mm 1 mps 759 mmHg 47%
    17:00 +25°C° 0 mm 1 mps 759 mmHg 50%
    18:00 +24°C° 0 mm 1 mps 759 mmHg 53%
    19:00 +23°C° 0 mm 2 mps 759 mmHg 57%
    20:00 +23°C° 0 mm 2 mps 760 mmHg 61%
    21:00 +21°C° 0 mm 2 mps 760 mmHg 65%
    22:00 +20°C° 0 mm 2 mps 760 mmHg 69%
    23:00 +20°C° 0 mm 2 mps 759 mmHg 73%

    Day after tomorrow, 25 September, Wednesday

    Time Temperature Precipitation Wind Pressure Humidity
    00:00 +19°C° 0 mm 2 mps 759 mmHg 77%
    01:00 +20°C° 0 mm 1 mps 759 mmHg 80%
    02:00 +20°C° 0 mm 1 mps 759 mmHg 83%
    03:00 +19°C° 0 mm 1 mps 759 mmHg 86%
    04:00 +17°C° 0 mm 0 mps 759 mmHg 87%
    05:00 +17°C° 0 mm 0 mps 759 mmHg 88%
    06:00 +17°C° 0 mm 0 mps 759 mmHg 89%
    07:00 +21°C° 0 mm 1 mps 759 mmHg 79%
    08:00 +22°C° 0 mm 1 mps 759 mmHg 70%
    09:00 +24°C° 0 mm 1 mps 759 mmHg 60%
    10:00 +26°C° 0 mm 1 mps 759 mmHg 54%
    11:00 +27°C° 0 mm 1 mps 758 mmHg 47%
    12:00 +29°C° 0 mm 1 mps 758 mmHg 41%
    13:00 +29°C° 0 mm 1 mps 758 mmHg 38%
    14:00 +30°C° 0 mm 1 mps 758 mmHg 35%
    15:00 +31°C° 0 mm 1 mps 757 mmHg 32%
    16:00 +30°C° 0 mm 2 mps 758 mmHg 35%
    17:00 +28°C° 0 mm 2 mps 758 mmHg 38%
    18:00 +27°C° 0 mm 3 mps 758 mmHg 42%
    19:00 +26°C° 0 mm 4 mps 759 mmHg 51%
    20:00 +23°C° 0 mm 6 mps 759 mmHg 60%
    21:00 +22°C° 0 mm 7 mps 760 mmHg 69%
    22:00 +21°C° 0 mm 6 mps 760 mmHg 70%
    23:00 +21°C° 0 mm 5 mps 760 mmHg 72%

    26 September, Thursday

    Time Temperature Precipitation Wind Pressure Humidity
    00:00 +20°C° 0 mm 4 mps 760 mmHg 73%
    01:00 +20°C° 0 mm 4 mps 760 mmHg 74%
    02:00 +20°C° 0 mm 3 mps 760 mmHg 75%
    03:00 +19°C° 0 mm 3 mps 760 mmHg 76%
    04:00 +19°C° 0 mm 2 mps 760 mmHg 77%
    05:00 +19°C° 0 mm 2 mps 760 mmHg 78%
    06:00 +18°C° 0 mm 2 mps 760 mmHg 78%
    07:00 +20°C° 0 mm 2 mps 760 mmHg 71%
    08:00 +23°C° 0 mm 2 mps 760 mmHg 64%
    09:00 +24°C° 0 mm 2 mps 760 mmHg 57%
    10:00 +25°C° 0 mm 2 mps 760 mmHg 52%
    11:00 +27°C° 0 mm 1 mps 759 mmHg 48%
    12:00 +28°C° 0 mm 1 mps 759 mmHg 43%
    13:00 +29°C° 0 mm 1 mps 758 mmHg 41%
    14:00 +29°C° 0 mm 2 mps 758 mmHg 40%
    15:00 +30°C° 0 mm 2 mps 757 mmHg 38%
    16:00 +29°C° 0 mm 2 mps 758 mmHg 41%
    17:00 +27°C° 0 mm 2 mps 758 mmHg 45%
    18:00 +26°C° 0 mm 1 mps 758 mmHg 48%
    19:00 +26°C° 0 mm 2 mps 758 mmHg 51%
    20:00 +25°C° 0 mm 2 mps 759 mmHg 54%
    21:00 +24°C° 0 mm 2 mps 760 mmHg 57%
    22:00 +22°C° 0 mm 3 mps 760 mmHg 63%
    23:00 +22°C° 0 mm 3 mps 760 mmHg 69%

    27 September, Friday

    Time Temperature Precipitation Wind Pressure Humidity
    00:00 +21°C° 0 mm 4 mps 760 mmHg 76%
    01:00 +20°C° 0 mm 4 mps 760 mmHg 75%
    02:00 +20°C° 0 mm 3 mps 760 mmHg 75%
    03:00 +19°C° 0 mm 3 mps 760 mmHg 74%
    04:00 +19°C° 0 mm 3 mps 760 mmHg 74%
    05:00 +19°C° 0 mm 2 mps 761 mmHg 74%
    06:00 +19°C° 0 mm 2 mps 761 mmHg 73%
    07:00 +21°C° 0 mm 3 mps 761 mmHg 64%
    08:00 +22°C° 0 mm 3 mps 761 mmHg 54%
    09:00 +25°C° 0 mm 4 mps 761 mmHg 44%
    10:00 +26°C° 0 mm 4 mps 761 mmHg 41%
    11:00 +28°C° 0 mm 3 mps 760 mmHg 39%
    12:00 +29°C° 0 mm 3 mps 760 mmHg 36%
    13:00 +29°C° 0 mm 2 mps 760 mmHg 34%
    14:00 +30°C° 0 mm 2 mps 759 mmHg 33%
    15:00 +30°C° 0 mm 2 mps 759 mmHg 32%
    16:00 +29°C° 0 mm 2 mps 759 mmHg 34%
    17:00 +28°C° 0 mm 2 mps 759 mmHg 37%
    18:00 +27°C° 0 mm 2 mps 759 mmHg 40%
    19:00 +26°C° 0 mm 3 mps 760 mmHg 43%
    20:00 +23°C° 0 mm 4 mps 760 mmHg 46%
    21:00 +22°C° 0 mm 6 mps 760 mmHg 49%
    22:00 +22°C° 0 mm 5 mps 760 mmHg 52%
    23:00 +21°C° 0 mm 4 mps 760 mmHg 56%

    28 September, Saturday

    Time Temperature Precipitation Wind Pressure Humidity
    00:00 +20°C° 0 mm 3 mps 760 mmHg 60%
    01:00 +19°C° 0 mm 3 mps 760 mmHg 61%
    02:00 +19°C° 0 mm 2 mps 759 mmHg 63%
    03:00 +18°C° 0 mm 2 mps 759 mmHg 65%
    04:00 +19°C° 0 mm 1 mps 759 mmHg 66%
    05:00 +19°C° 0 mm 1 mps 759 mmHg 68%
    06:00 +18°C° 0 mm 1 mps 759 mmHg 69%
    07:00 +20°C° 0 mm 1 mps 758 mmHg 61%
    08:00 +22°C° 0 mm 1 mps 758 mmHg 52%
    09:00 +24°C° 0 mm 1 mps 758 mmHg 44%
    10:00 +26°C° 0 mm 1 mps 758 mmHg 41%
    11:00 +27°C° 0 mm 2 mps 757 mmHg 38%
    12:00 +28°C° 0 mm 2 mps 757 mmHg 35%
    13:00 +29°C° 0 mm 4 mps 757 mmHg 34%
    14:00 +30°C° 0 mm 6 mps 757 mmHg 33%
    15:00 +30°C° 0 mm 7 mps 756 mmHg 32%
    16:00 +28°C° 0 mm 8 mps 757 mmHg 38%
    17:00 +27°C° 0 mm 8 mps 757 mmHg 45%
    18:00 +24°C° 0 mm 8 mps 758 mmHg 52%
    19:00 +24°C° 0 mm 7 mps 759 mmHg 53%
    20:00 +24°C° 0 mm 6 mps 759 mmHg 53%
    21:00 +25°C° 0 mm 5 mps 760 mmHg 53%
    22:00 +23°C° 0 mm 4 mps 760 mmHg 54%
    23:00 +24°C° 0 mm 3 mps 760 mmHg 55%
    Show more